When you browse on this site, cookies collect data to enhance your experience and personalize the content and advertising you see.
Visit our Privacy Policy to learn more. By continuing to use the site, you agree to this use of cookies and data.
  • En España
  • Lista de países
  • Para 7 días
  • Temperatura del agua
  • Mapa Satelital
  • El tiempo en el mapa
  • Informadores
  • user-avatar
    Iniciar sesión

    Tiempo cada hora Zakromskiy Hutor

    Hoy, 16 Noviembre, Viernes

    Tiempo Temperatura Precipitaciones Viento Presión Humedad
    00:00 -5°C° 0 mm 3 mps 760 mmHg 38%
    01:00 -5°C° 0 mm 3 mps 760 mmHg 36%
    02:00 -5°C° 0 mm 3 mps 760 mmHg 36%
    03:00 -5°C° 0 mm 3 mps 761 mmHg 35%
    04:00 -5°C° 0 mm 3 mps 761 mmHg 33%
    05:00 -5°C° 0 mm 3 mps 761 mmHg 32%
    06:00 -5°C° 0 mm 3 mps 761 mmHg 32%
    07:00 -5°C° 0 mm 4 mps 761 mmHg 31%
    08:00 -5°C° 0 mm 4 mps 762 mmHg 30%
    09:00 -4°C° 0 mm 4 mps 762 mmHg 28%
    10:00 -3°C° 0 mm 4 mps 762 mmHg 26%
    11:00 -2°C° 0 mm 4 mps 762 mmHg 24%
    12:00 -1°C° 0 mm 4 mps 762 mmHg 24%
    13:00 -1°C° 0 mm 4 mps 762 mmHg 24%
    14:00 -1°C° 0 mm 4 mps 762 mmHg 24%
    15:00 -2°C° 0 mm 4 mps 762 mmHg 25%
    16:00 -3°C° 0 mm 4 mps 762 mmHg 27%
    17:00 -4°C° 0 mm 3 mps 762 mmHg 28%
    18:00 -4°C° 0 mm 3 mps 762 mmHg 27%
    19:00 -4°C° 0 mm 3 mps 762 mmHg 27%
    20:00 -4°C° 0 mm 3 mps 762 mmHg 26%
    21:00 -4°C° 0 mm 3 mps 762 mmHg 25%
    22:00 -4°C° 0 mm 3 mps 762 mmHg 25%
    23:00 -5°C° 0 mm 3 mps 762 mmHg 24%

    Mañana, 17 Noviembre, Sábado

    Tiempo Temperatura Precipitaciones Viento Presión Humedad
    00:00 -5°C° 0 mm 3 mps 762 mmHg 24%
    01:00 -5°C° 0 mm 3 mps 762 mmHg 24%
    02:00 -4°C° 0 mm 2 mps 762 mmHg 24%
    03:00 -4°C° 0 mm 2 mps 762 mmHg 23%
    04:00 -4°C° 0 mm 2 mps 762 mmHg 23%
    05:00 -4°C° 0 mm 2 mps 761 mmHg 23%
    06:00 -4°C° 0 mm 2 mps 761 mmHg 22%
    07:00 -4°C° 0 mm 2 mps 761 mmHg 22%
    08:00 -4°C° 0 mm 2 mps 761 mmHg 21%
    09:00 -1°C° 0 mm 1 mps 761 mmHg 19%
    10:00 0°C° 0 mm 1 mps 761 mmHg 18%
    11:00 +2°C° 0 mm 1 mps 761 mmHg 16%
    12:00 +2°C° 0 mm 1 mps 760 mmHg 17%
    13:00 +2°C° 0 mm 1 mps 759 mmHg 19%
    14:00 +2°C° 0 mm 1 mps 759 mmHg 20%
    15:00 +1°C° 0 mm 1 mps 758 mmHg 20%
    16:00 0°C° 0 mm 1 mps 758 mmHg 21%
    17:00 0°C° 0 mm 1 mps 757 mmHg 21%
    18:00 -1°C° 0 mm 1 mps 757 mmHg 21%
    19:00 -1°C° 0 mm 1 mps 756 mmHg 22%
    20:00 -3°C° 0 mm 2 mps 755 mmHg 22%
    21:00 -3°C° 0 mm 2 mps 755 mmHg 23%
    22:00 -3°C° 0 mm 2 mps 754 mmHg 24%
    23:00 -4°C° 0 mm 3 mps 754 mmHg 25%

    Pasado mañana, 18 Noviembre, Domingo

    Tiempo Temperatura Precipitaciones Viento Presión Humedad
    00:00 -4°C° 0 mm 3 mps 753 mmHg 27%
    01:00 -4°C° 0 mm 3 mps 752 mmHg 28%
    02:00 -4°C° 0 mm 4 mps 751 mmHg 29%
    03:00 -4°C° 0 mm 4 mps 750 mmHg 32%
    04:00 -4°C° 0 mm 4 mps 749 mmHg 34%
    05:00 -4°C° 0 mm 4 mps 748 mmHg 36%
    06:00 -4°C° 0 mm 4 mps 748 mmHg 41%
    07:00 -4°C° 0 mm 4 mps 748 mmHg 46%
    08:00 -4°C° 0 mm 4 mps 747 mmHg 52%
    09:00 -4°C° 0.1 mm 4 mps 747 mmHg 58%
    10:00 -4°C° 0.1 mm 4 mps 746 mmHg 65%
    11:00 -3°C° 0.1 mm 4 mps 746 mmHg 72%
    12:00 -2°C° 0 mm 3 mps 746 mmHg 74%
    13:00 -2°C° 0 mm 3 mps 746 mmHg 76%
    14:00 -2°C° 0 mm 3 mps 745 mmHg 78%
    15:00 -2°C° 0 mm 3 mps 745 mmHg 80%
    16:00 -2°C° 0 mm 2 mps 745 mmHg 83%
    17:00 -2°C° 0 mm 2 mps 745 mmHg 86%
    18:00 -2°C° 0.1 mm 2 mps 745 mmHg 87%
    19:00 -2°C° 0.1 mm 2 mps 745 mmHg 89%
    20:00 0°C° 0.1 mm 1 mps 745 mmHg 90%
    21:00 -1°C° 0 mm 1 mps 745 mmHg 91%
    22:00 -1°C° 0 mm 1 mps 745 mmHg 92%
    23:00 -1°C° 0 mm 1 mps 745 mmHg 93%

    19 Noviembre, Lunes

    Tiempo Temperatura Precipitaciones Viento Presión Humedad
    00:00 -1°C° 0.1 mm 1 mps 746 mmHg 93%
    01:00 -1°C° 0.1 mm 1 mps 746 mmHg 93%
    02:00 -1°C° 0.1 mm 1 mps 746 mmHg 92%
    03:00 -1°C° 0.1 mm 1 mps 746 mmHg 92%
    04:00 -1°C° 0.1 mm 1 mps 746 mmHg 91%
    05:00 -1°C° 0.1 mm 1 mps 747 mmHg 90%
    06:00 -3°C° 0.1 mm 2 mps 747 mmHg 88%
    07:00 -3°C° 0.1 mm 2 mps 747 mmHg 86%
    08:00 -3°C° 0.1 mm 2 mps 748 mmHg 84%
    09:00 -3°C° 0 mm 2 mps 748 mmHg 77%
    10:00 -2°C° 0 mm 3 mps 748 mmHg 70%
    11:00 -2°C° 0 mm 3 mps 749 mmHg 63%
    12:00 -1°C° 0 mm 3 mps 749 mmHg 61%
    13:00 -1°C° 0 mm 3 mps 749 mmHg 59%
    14:00 -1°C° 0 mm 3 mps 750 mmHg 57%
    15:00 -2°C° 0 mm 3 mps 750 mmHg 60%
    16:00 -2°C° 0 mm 3 mps 750 mmHg 62%
    17:00 -4°C° 0 mm 3 mps 750 mmHg 64%
    18:00 -4°C° 0 mm 3 mps 751 mmHg 64%
    19:00 -4°C° 0 mm 3 mps 751 mmHg 63%
    20:00 -3°C° 0 mm 4 mps 751 mmHg 62%
    21:00 -3°C° 0 mm 4 mps 752 mmHg 64%
    22:00 -3°C° 0 mm 4 mps 752 mmHg 66%
    23:00 -3°C° 0 mm 4 mps 752 mmHg 68%

    20 Noviembre, Martes

    Tiempo Temperatura Precipitaciones Viento Presión Humedad
    00:00 -3°C° 0 mm 4 mps 752 mmHg 68%
    01:00 -3°C° 0 mm 4 mps 752 mmHg 67%
    02:00 -3°C° 0 mm 4 mps 752 mmHg 67%
    03:00 -3°C° 0 mm 4 mps 752 mmHg 66%
    04:00 -3°C° 0 mm 4 mps 752 mmHg 65%
    05:00 -3°C° 0 mm 4 mps 752 mmHg 64%
    06:00 -3°C° 0 mm 4 mps 752 mmHg 62%
    07:00 -4°C° 0 mm 5 mps 752 mmHg 60%
    08:00 -4°C° 0 mm 5 mps 752 mmHg 58%
    09:00 -4°C° 0 mm 5 mps 752 mmHg 57%
    10:00 -2°C° 0 mm 5 mps 752 mmHg 56%
    11:00 -2°C° 0 mm 5 mps 752 mmHg 55%
    12:00 -2°C° 0 mm 5 mps 752 mmHg 61%
    13:00 -2°C° 0 mm 5 mps 751 mmHg 68%
    14:00 -2°C° 0 mm 5 mps 751 mmHg 74%
    15:00 -2°C° 0.1 mm 5 mps 751 mmHg 77%
    16:00 -4°C° 0.1 mm 5 mps 751 mmHg 80%
    17:00 -4°C° 0.1 mm 5 mps 750 mmHg 83%
    18:00 -4°C° 0.2 mm 5 mps 750 mmHg 84%
    19:00 -3°C° 0.2 mm 4 mps 750 mmHg 86%
    20:00 -3°C° 0.2 mm 4 mps 750 mmHg 88%
    21:00 -3°C° 0.1 mm 4 mps 749 mmHg 89%
    22:00 -4°C° 0.1 mm 3 mps 749 mmHg 90%
    23:00 -4°C° 0.1 mm 3 mps 749 mmHg 91%

    21 Noviembre, Miércoles

    Tiempo Temperatura Precipitaciones Viento Presión Humedad
    00:00 -4°C° 0 mm 3 mps 749 mmHg 91%
    01:00 -4°C° 0 mm 3 mps 749 mmHg 91%
    02:00 -4°C° 0 mm 3 mps 748 mmHg 92%
    03:00 -4°C° 0 mm 3 mps 748 mmHg 92%
    04:00 -3°C° 0 mm 2 mps 748 mmHg 92%
    05:00 -3°C° 0 mm 2 mps 748 mmHg 92%
    06:00 -3°C° 0 mm 2 mps 748 mmHg 93%
    07:00 -3°C° 0 mm 2 mps 748 mmHg 94%
    08:00 -3°C° 0 mm 2 mps 747 mmHg 94%
    09:00 -4°C° 0 mm 3 mps 747 mmHg 92%
    10:00 -2°C° 0 mm 3 mps 747 mmHg 89%
    11:00 -3°C° 0 mm 4 mps 747 mmHg 87%
    12:00 -3°C° 0 mm 4 mps 746 mmHg 86%
    13:00 -3°C° 0 mm 4 mps 746 mmHg 86%
    14:00 -2°C° 0 mm 4 mps 746 mmHg 86%
    15:00 -3°C° 0 mm 4 mps 745 mmHg 87%
    16:00 -3°C° 0 mm 4 mps 745 mmHg 88%
    17:00 -3°C° 0 mm 4 mps 745 mmHg 90%
    18:00 -3°C° 0 mm 4 mps 745 mmHg 90%
    19:00 -4°C° 0 mm 5 mps 744 mmHg 89%
    20:00 -4°C° 0 mm 5 mps 744 mmHg 89%
    21:00 -4°C° 0 mm 5 mps 744 mmHg 89%
    22:00 -4°C° 0 mm 5 mps 743 mmHg 88%
    23:00 -4°C° 0 mm 6 mps 743 mmHg 88%
    Mostrar más